Location: Unspecified
(58.7730°N, 5.8460°E)
Time: 13:33:59
(UTC+01:00)

CZ-3 Stage 3 - Visible Passes

Search period start: 06 March 2015 00:00
Search period end: 16 March 2015 00:00
Orbit: 430 x 34800 km, 31.0° (Epoch: 03 March)

Date Brightness Start Highest point End Pass type
(mag) Time Alt. Az. Time Alt. Az. Time Alt. Az.
07 Mar 7.4 15:11:43 10° SSW 23:23:24 35° WSW 23:54:08 20° SSW visible
08 Mar 7.4 11:41:34 10° SSE 18:27:29 56° S 20:27:23 12° SE visible
10 Mar 7.4 15:06:03 10° SSW 23:17:19 34° WSW 23:50:15 18° SSW visible
11 Mar 7.4 11:34:14 10° SSE 18:21:54 56° S 20:23:16 10° SE visible
13 Mar 7.4 15:00:26 10° SW 23:11:09 33° WSW 23:46:19 15° SSW visible
14 Mar 7.4 11:27:06 10° SSE 18:16:12 56° S 20:18:16 10° SE visible
